Retour au catalogue

OPS 4682 DEB

ActifPO
NORAD 17093·DEBRIS·🇺🇸 United States

Lancé Apr 3, 1965 depuis Vandenberg Space Force Base

Loading…

Prochains Passages (prochaines 24 heures)

TLE

VieillissantSource: Space-Track

Époque: Sep 8, 2026, 19:30 UTC

1 17093U 65027U   26251.81265035 -.00000129  00000-0 -46548-3 0  9990
2 17093  90.2470  10.4214 0027319 165.0536 346.0698 12.98183128957824

Suivez OPS 4682 DEB en temps réel avec AllMySat

Download on the App Store